| time (UTC) | temp F | wind direction | speed knots | gust knots | rain 1hr in | rain 24hr in | rain mn in | humidity % | barometer mb |
| 20260505051047 | 53 | 36 | 0.9 | 4.3 | 0.00 | 0.00 | 0.00 | 63 | 1002.9 |
| 20260505050548 | 53 | 351 | 1.7 | 4.3 | 0.00 | 0.00 | 0.00 | 62 | 1002.8 |
| 20260505041551 | 53 | 10 | 0.0 | 0.0 | 0.00 | 0.00 | 0.00 | 68 | 1004.1 |
| 20260505041039 | 53 | 10 | 0.0 | 0.0 | 0.00 | 0.00 | 0.00 | 68 | 1004.2 |
| 20260505040539 | 53 | 355 | 0.0 | 0.0 | 0.00 | 0.00 | 0.00 | 68 | 1004.3 |
| 20260505040049 | 53 | 355 | 0.0 | 0.0 | 0.00 | 0.00 | 0.00 | 68 | 1004.4 |
| 20260505035537 | 53 | 355 | 0.0 | 1.7 | 0.00 | 0.00 | 0.00 | 68 | 1004.4 |
| 20260505035036 | 53 | 355 | 0.0 | 1.7 | 0.00 | 0.00 | 0.00 | 68 | 1004.6 |
| 20260505034535 | 53 | 355 | 0.0 | 1.7 | 0.00 | 0.00 | 0.00 | 69 | 1004.6 |
| 20260505034037 | 53 | 313 | 0.0 | 0.0 | 0.00 | 0.00 | 0.00 | 70 | 1004.8 |
| 20260505033534 | 53 | 313 | 0.0 | 0.0 | 0.00 | 0.00 | 0.00 | 70 | 1004.9 |
| 20260505033033 | 53 | 310 | 0.0 | 0.0 | 0.00 | 0.00 | 0.00 | 69 | 1005.2 |
| 20260505032533 | 53 | 310 | 0.0 | 0.0 | 0.00 | 0.00 | 0.00 | 69 | 1005.2 |
| 20260505032031 | 53 | 310 | 0.0 | 0.0 | 0.00 | 0.00 | 0.00 | 69 | 1005.4 |
| 20260505031540 | 53 | 310 | 0.0 | 0.0 | 0.00 | 0.00 | 0.00 | 68 | 1005.4 |
| 20260505031032 | 53 | 310 | 0.0 | 0.0 | 0.00 | 0.00 | 0.00 | 69 | 1005.5 |
| 20260505030531 | 53 | 310 | 0.0 | 2.6 | 0.00 | 0.00 | 0.00 | 67 | 1005.6 |
| 20260505030030 | 53 | 310 | 0.0 | 2.6 | 0.00 | 0.00 | 0.00 | 66 | 1005.7 |
| 20260505025530 | 52 | 310 | 0.9 | 2.6 | 0.00 | 0.00 | 0.00 | 67 | 1005.7 |
| 20260505025028 | 52 | 313 | 0.9 | 3.5 | 0.00 | 0.00 | 0.00 | 67 | 1005.8 |
| 20260505024530 | 53 | 313 | 1.7 | 3.5 | 0.00 | 0.00 | 0.00 | 68 | 1005.9 |
| 20260505024028 | 53 | 318 | 1.7 | 2.6 | 0.00 | 0.00 | 0.00 | 66 | 1005.9 |
| 20260505023526 | 53 | 314 | 1.7 | 2.6 | 0.00 | 0.00 | 0.00 | 65 | 1006.2 |
| 20260505023026 | 53 | 321 | 0.9 | 4.3 | 0.00 | 0.00 | 0.00 | 64 | 1006.3 |
| 20260505022526 | 53 | 321 | 1.7 | 4.3 | 0.00 | 0.00 | 0.00 | 64 | 1006.4 |
| 20260505022025 | 53 | 312 | 0.0 | 2.6 | 0.00 | 0.00 | 0.00 | 66 | 1006.4 |
| 20260505021524 | 53 | 312 | 0.9 | 2.6 | 0.00 | 0.00 | 0.00 | 64 | 1006.6 |
| 20260505021023 | 53 | 312 | 0.9 | 2.6 | 0.00 | 0.00 | 0.00 | 62 | 1006.9 |
| 20260505020522 | 53 | 305 | 1.7 | 2.6 | 0.00 | 0.00 | 0.00 | 63 | 1006.9 |
| 20260505020022 | 54 | 305 | 0.9 | 2.6 | 0.00 | 0.00 | 0.00 | 63 | 1007.1 |
| 20260505015521 | 54 | 305 | 0.9 | 2.6 | 0.00 | 0.00 | 0.00 | 62 | 1007.2 |
| 20260505015020 | 54 | 305 | 0.9 | 2.6 | 0.00 | 0.00 | 0.00 | 61 | 1007.2 |
| 20260505014524 | 54 | 313 | 0.9 | 2.6 | 0.00 | 0.00 | 0.00 | 60 | 1007.4 |
| 20260505014018 | 55 | 313 | 0.0 | 2.6 | 0.00 | 0.00 | 0.00 | 59 | 1007.5 |
| 20260505013517 | 55 | 313 | 0.9 | 2.6 | 0.00 | 0.00 | 0.00 | 59 | 1007.5 |
| 20260505013017 | 55 | 313 | 0.9 | 2.6 | 0.00 | 0.00 | 0.00 | 58 | 1007.6 |
| 20260505012517 | 55 | 313 | 0.9 | 4.3 | 0.00 | 0.00 | 0.00 | 58 | 1007.7 |
| 20260505012017 | 55 | 313 | 1.7 | 4.3 | 0.00 | 0.00 | 0.00 | 57 | 1007.7 |
| 20260505011517 | 55 | 322 | 1.7 | 4.3 | 0.00 | 0.00 | 0.00 | 57 | 1007.7 |
| 20260505011017 | 55 | 323 | 1.7 | 3.5 | 0.00 | 0.00 | 0.00 | 57 | 1007.8 |
| 20260505010515 | 55 | 54 | 0.9 | 3.5 | 0.00 | 0.00 | 0.00 | 57 | 1008.0 |
| 20260505010021 | 55 | 319 | 0.9 | 3.5 | 0.00 | 0.00 | 0.00 | 57 | 1007.9 |
| 20260505005514 | 55 | 319 | 0.0 | 3.5 | 0.00 | 0.00 | 0.00 | 57 | 1008.0 |
| 20260505005114 | 55 | 323 | 0.9 | 3.5 | 0.00 | 0.00 | 0.00 | 58 | 1008.0 |
| 20260505004513 | 55 | 321 | 1.7 | 4.3 | 0.00 | 0.00 | 0.00 | 58 | 1008.1 |
| 20260505004013 | 55 | 331 | 1.7 | 4.3 | 0.00 | 0.00 | 0.00 | 57 | 1008.2 |
| 20260505003513 | 55 | 332 | 0.9 | 3.5 | 0.00 | 0.00 | 0.00 | 57 | 1008.3 |
| 20260505003011 | 55 | 324 | 0.9 | 2.6 | 0.00 | 0.00 | 0.00 | 57 | 1008.4 |
| 20260505002511 | 55 | 14 | 0.9 | 2.6 | 0.00 | 0.00 | 0.00 | 57 | 1008.4 |
| 20260505002010 | 55 | 315 | 0.9 | 2.6 | 0.00 | 0.00 | 0.00 | 57 | 1008.5 |
| 20260505001509 | 55 | 329 | 0.9 | 3.5 | 0.00 | 0.00 | 0.00 | 57 | 1008.6 |
| 20260505001008 | 55 | 333 | 0.9 | 3.5 | 0.00 | 0.00 | 0.00 | 57 | 1008.6 |
| 20260505000507 | 55 | 326 | 0.9 | 3.5 | 0.00 | 0.00 | 0.00 | 57 | 1008.8 |
| 20260505000009 | 55 | 320 | 1.7 | 3.5 | 0.00 | 0.00 | 0.00 | 56 | 1009.0 |
| 20260504235507 | 55 | 299 | 0.9 | 3.5 | 0.00 | 0.00 | 0.00 | 57 | 1009.0 |
| 20260504235004 | 55 | 312 | 0.0 | 3.5 | 0.00 | 0.00 | 0.00 | 56 | 1009.0 |
| 20260504234503 | 55 | 323 | 0.0 | 5.2 | 0.00 | 0.00 | 0.00 | 56 | 1009.2 |
| 20260504234002 | 55 | 325 | 0.9 | 5.2 | 0.00 | 0.00 | 0.00 | 58 | 1009.3 |
| 20260504233504 | 54 | 332 | 1.7 | 3.5 | 0.00 | 0.00 | 0.00 | 58 | 1009.4 |
| 20260504233002 | 54 | 317 | 0.9 | 3.5 | 0.00 | 0.00 | 0.00 | 57 | 1009.4 |
| 20260504232501 | 54 | 332 | 0.9 | 3.5 | 0.00 | 0.00 | 0.00 | 58 | 1009.6 |
| 20260504232100 | 54 | 30 | 0.9 | 2.6 | 0.00 | 0.00 | 0.00 | 58 | 1009.7 |
| 20260504231604 | 54 | 29 | 0.9 | 2.6 | 0.00 | 0.00 | 0.00 | 58 | 1009.8 |
| 20260504231059 | 54 | 324 | 0.9 | 3.5 | 0.00 | 0.00 | 0.00 | 57 | 1010.0 |
| 20260504230557 | 54 | 323 | 1.7 | 4.3 | 0.00 | 0.00 | 0.00 | 56 | 1010.1 |
| 20260504230057 | 54 | 101 | 1.7 | 4.3 | 0.00 | 0.00 | 0.00 | 56 | 1010.3 |
| 20260504225555 | 55 | 87 | 0.0 | 1.7 | 0.00 | 0.00 | 0.00 | 57 | 1010.3 |
| 20260504225053 | 55 | 63 | 0.0 | 3.5 | 0.00 | 0.00 | 0.00 | 58 | 1010.4 |
| 20260504224558 | 54 | 63 | 1.7 | 3.5 | 0.00 | 0.00 | 0.00 | 58 | 1010.6 |
| 20260504224051 | 54 | 192 | 0.0 | 0.0 | 0.00 | 0.00 | 0.00 | 57 | 1010.7 |
| 20260504223550 | 54 | 99 | 0.0 | 4.3 | 0.00 | 0.00 | 0.00 | 57 | 1010.8 |
| 20260504223107 | 54 | 67 | 0.9 | 7.0 | 0.00 | 0.00 | 0.00 | 57 | 1011.0 |
| 20260504222549 | 54 | 103 | 1.7 | 7.0 | 0.00 | 0.00 | 0.00 | 57 | 1011.1 |
| 20260504222049 | 54 | 98 | 3.5 | 7.0 | 0.00 | 0.00 | 0.00 | 58 | 1011.2 |
| 20260504221547 | 54 | 102 | 0.9 | 5.2 | 0.00 | 0.00 | 0.00 | 57 | 1011.2 |
| 20260504221049 | 54 | 45 | 0.9 | 3.5 | 0.00 | 0.00 | 0.00 | 58 | 1011.4 |
| 20260504220546 | 54 | 65 | 0.9 | 5.2 | 0.00 | 0.00 | 0.00 | 59 | 1011.4 |
| 20260504220046 | 54 | 32 | 1.7 | 5.2 | 0.00 | 0.00 | 0.00 | 58 | 1011.5 |
| 20260504215544 | 54 | 24 | 0.9 | 4.3 | 0.00 | 0.00 | 0.00 | 58 | 1011.5 |
| 20260504215043 | 54 | 98 | 0.9 | 4.3 | 0.00 | 0.00 | 0.00 | 58 | 1011.7 |
| 20260504214543 | 54 | 80 | 1.7 | 6.1 | 0.00 | 0.00 | 0.00 | 58 | 1011.8 |
| 20260504214046 | 54 | 95 | 2.6 | 5.2 | 0.00 | 0.00 | 0.00 | 58 | 1011.7 |
| 20260504213543 | 54 | 74 | 1.7 | 4.3 | 0.00 | 0.00 | 0.00 | 59 | 1011.9 |
| 20260504213053 | 54 | 36 | 1.7 | 4.3 | 0.00 | 0.00 | 0.00 | 59 | 1011.9 |
| 20260504212543 | 54 | 41 | 1.7 | 7.8 | 0.00 | 0.00 | 0.00 | 59 | 1011.9 |
| 20260504212041 | 54 | 5 | 1.7 | 7.8 | 0.00 | 0.00 | 0.00 | 59 | 1011.9 |
| 20260504211541 | 54 | 134 | 0.9 | 7.8 | 0.00 | 0.00 | 0.00 | 59 | 1012.1 |
| 20260504211040 | 54 | 13 | 1.7 | 5.2 | 0.00 | 0.00 | 0.00 | 60 | 1012.3 |
| 20260504210539 | 54 | 355 | 3.5 | 6.1 | 0.00 | 0.00 | 0.00 | 60 | 1012.4 |
| 20260504210041 | 54 | 20 | 2.6 | 6.1 | 0.00 | 0.00 | 0.00 | 59 | 1012.5 |
| 20260504205538 | 53 | 83 | 0.9 | 5.2 | 0.00 | 0.00 | 0.00 | 60 | 1012.5 |
| 20260504205040 | 53 | 44 | 1.7 | 7.0 | 0.00 | 0.00 | 0.00 | 60 | 1012.5 |
| 20260504204544 | 53 | 127 | 1.7 | 7.0 | 0.00 | 0.00 | 0.00 | 61 | 1012.5 |
| 20260504204035 | 53 | 20 | 1.7 | 6.1 | 0.00 | 0.00 | 0.00 | 62 | 1012.5 |
| 20260504203533 | 52 | 50 | 0.9 | 4.3 | 0.00 | 0.00 | 0.00 | 63 | 1012.6 |
| 20260504203038 | 52 | 76 | 1.7 | 5.2 | 0.00 | 0.00 | 0.00 | 62 | 1012.6 |
| 20260504202532 | 52 | 321 | 2.6 | 5.2 | 0.00 | 0.00 | 0.00 | 64 | 1012.7 |
| 20260504202034 | 52 | 311 | 1.7 | 8.7 | 0.00 | 0.00 | 0.00 | 63 | 1012.9 |
| 20260504201531 | 52 | 34 | 0.9 | 8.7 | 0.00 | 0.00 | 0.00 | 63 | 1012.9 |
| 20260504201032 | 52 | 42 | 1.7 | 4.3 | 0.00 | 0.00 | 0.00 | 63 | 1013.0 |
| 20260504200530 | 52 | 335 | 0.9 | 5.2 | 0.00 | 0.00 | 0.00 | 63 | 1013.1 |
| 20260504200031 | 52 | 28 | 1.7 | 5.2 | 0.00 | 0.00 | 0.00 | 64 | 1013.3 |
| 20260504195527 | 52 | 355 | 0.9 | 5.2 | 0.00 | 0.00 | 0.00 | 63 | 1013.3 |
| 20260504195027 | 52 | 94 | 1.7 | 5.2 | 0.00 | 0.00 | 0.00 | 64 | 1013.4 |
| 20260504194525 | 51 | 50 | 2.6 | 4.3 | 0.00 | 0.00 | 0.00 | 64 | 1013.4 |
| 20260504194023 | 51 | 89 | 0.9 | 7.0 | 0.00 | 0.00 | 0.00 | 66 | 1013.6 |
| 20260504193524 | 51 | 319 | 2.6 | 7.0 | 0.00 | 0.00 | 0.00 | 65 | 1013.7 |
| 20260504193020 | 50 | 355 | 0.9 | 4.3 | 0.00 | 0.00 | 0.00 | 65 | 1013.7 |
| 20260504192520 | 50 | 15 | 1.7 | 4.3 | 0.00 | 0.00 | 0.00 | 67 | 1014.0 |
| 20260504192019 | 50 | 321 | 1.7 | 4.3 | 0.00 | 0.00 | 0.00 | 65 | 1013.9 |
| 20260504191517 | 50 | 15 | 2.6 | 5.2 | 0.00 | 0.00 | 0.00 | 66 | 1014.1 |
| 20260504191017 | 49 | 28 | 1.7 | 5.2 | 0.00 | 0.00 | 0.00 | 66 | 1014.2 |
| 20260504190514 | 49 | 5 | 1.7 | 5.2 | 0.00 | 0.00 | 0.00 | 67 | 1014.1 |
| 20260504190015 | 48 | 73 | 2.6 | 6.1 | 0.00 | 0.00 | 0.00 | 67 | 1014.3 |
| 20260504185510 | 48 | 20 | 0.0 | 0.0 | 0.00 | 0.00 | 0.00 | 67 | 1014.3 |
| 20260504185009 | 47 | 355 | 0.0 | 0.0 | 0.00 | 0.00 | 0.00 | 68 | 1014.3 |
| 20260504184507 | 47 | 46 | 0.0 | 0.0 | 0.00 | 0.00 | 0.00 | 68 | 1014.3 |
| 20260504184007 | 46 | 69 | 0.0 | 0.0 | 0.00 | 0.00 | 0.00 | 69 | 1014.3 |
| 20260504183507 | 46 | 82 | 0.0 | 1.7 | 0.00 | 0.00 | 0.00 | 69 | 1014.5 |
| 20260504183104 | 45 | 65 | 0.0 | 1.7 | 0.00 | 0.00 | 0.00 | 69 | 1014.5 |
| 20260504182502 | 45 | 65 | 0.0 | 1.7 | 0.00 | 0.00 | 0.00 | 70 | 1014.5 |
| 20260504182100 | 44 | 65 | 0.0 | 1.7 | 0.00 | 0.00 | 0.00 | 70 | 1014.7 |
| 20260504181604 | 44 | 5 | 0.0 | 0.0 | 0.00 | 0.00 | 0.00 | 70 | 1014.8 |
| 20260504181058 | 44 | 5 | 0.0 | 0.0 | 0.00 | 0.00 | 0.00 | 71 | 1014.9 |
| 20260504180557 | 44 | 61 | 0.0 | 0.0 | 0.00 | 0.00 | 0.00 | 72 | 1015.1 |
| 20260504180056 | 43 | 61 | 0.0 | 0.0 | 0.00 | 0.00 | 0.00 | 71 | 1015.2 |
| 20260504175553 | 43 | 61 | 0.0 | 0.0 | 0.00 | 0.00 | 0.00 | 71 | 1015.3 |
| 20260504175053 | 43 | 61 | 0.0 | 0.0 | 0.00 | 0.00 | 0.00 | 71 | 1015.3 |
| 20260504174557 | 42 | 61 | 0.0 | 0.0 | 0.00 | 0.00 | 0.00 | 71 | 1015.3 |
| 20260504174050 | 42 | 61 | 0.0 | 0.0 | 0.00 | 0.00 | 0.00 | 72 | 1015.4 |
| 20260504173548 | 42 | 61 | 0.0 | 0.0 | 0.00 | 0.00 | 0.00 | 71 | 1015.4 |
| 20260504173047 | 42 | 61 | 0.0 | 0.0 | 0.00 | 0.00 | 0.00 | 72 | 1015.4 |
| 20260504172546 | 41 | 61 | 0.0 | 0.0 | 0.00 | 0.00 | 0.00 | 72 | 1015.5 |
| 20260504172046 | 41 | 61 | 0.0 | 0.0 | 0.00 | 0.00 | 0.00 | 73 | 1015.5 |
| 20260504171548 | 41 | 61 | 0.0 | 0.0 | 0.00 | 0.00 | 0.00 | 74 | 1015.6 |
| 20260504171044 | 41 | 61 | 0.0 | 0.0 | 0.00 | 0.00 | 0.00 | 74 | 1015.7 |
| 20260504170542 | 40 | 61 | 0.0 | 0.0 | 0.00 | 0.00 | 0.00 | 74 | 1015.6 |
| 20260504151026 | 36 | 296 | 0.0 | 0.0 | 0.00 | 0.00 | 0.00 | 78 | 1016.1 |
| 20260504150525 | 36 | 296 | 0.0 | 0.0 | 0.00 | 0.00 | 0.00 | 78 | 1016.1 |
| 20260504141022 | 35 | 296 | 0.0 | 0.0 | 0.00 | 0.00 | 0.00 | 81 | 1016.0 |
| 20260504140521 | 35 | 296 | 0.0 | 0.0 | 0.00 | 0.00 | 0.00 | 82 | 1016.0 |
| 20260504130516 | 35 | 296 | 0.0 | 0.0 | 0.00 | 0.00 | 0.00 | 83 | 1016.1 |
| 20260504110505 | 36 | 296 | 0.0 | 0.0 | 0.00 | 0.00 | 0.00 | 80 | 1016.1 |
| 20260504100556 | 38 | 296 | 0.0 | 0.0 | 0.00 | 0.00 | 0.00 | 74 | 1016.4 |
| 20260504081541 | 41 | 296 | 0.0 | 0.0 | 0.00 | 0.00 | 0.00 | 72 | 1016.8 |
| 20260504081040 | 41 | 296 | 0.0 | 0.0 | 0.00 | 0.00 | 0.00 | 72 | 1016.7 |
| 20260504080539 | 41 | 296 | 0.0 | 0.0 | 0.00 | 0.00 | 0.00 | 71 | 1016.7 |